Location: Hradec Kralove
(50.2170°N, 15.8330°E)
Time: 05:27:34
(UTC+02:00)

Explorer 7 - Pass Details

Date: 01 February 2023
Orbit: 478 x 657 km, 50.3° (Epoch: 25 March)

Event Time Altitude Azimuth Distance (km) Brightness Sun altitude
Rises 17:14:59 0° 284° (WNW) 2,861 11.5 -4.5°
Reaches altitude 10° 17:17:16 10° 281° (W) 1,983 10.7 -4.9°
Maximum altitude 17:21:45 58° 203° (SSW) 748 7.8 -5.6°
Drops below altitude 10° 17:26:25 10° 125° (SE) 2,058 9.4 -6.3°
Sets 17:28:49 0° 121° (ESE) 2,978 10.2 -6.6°
